Weather History for KBWD - January, 2013

Change the Weather History Date:

Wednesday, January 9, 2013

  Actual Average (KABI) Record (KABI)
Temperature  
Mean Temperature 50 °F 44 °F  
Max Temperature 53 °F 56 °F 84 °F (1957)
Min Temperature 48 °F 33 °F 6 °F (1887)
Degree Days  
Heating Degree Days 14 21  
Month to date heating degree days 189  
Since 1 July heating degree days 1234  
Cooling Degree Days 0 0  
Month to date cooling degree days 0  
Year to date cooling degree days 0  
Moisture  
Dew Point 50 °F    
Average Humidity 98    
Maximum Humidity 100    
Minimum Humidity 88    
Precipitation  
Precipitation 0.81 in 0.03 in 1.25 in (1991)
Month to date precipitation 0.27  
Year to date precipitation 0.27  
Sea Level Pressure  
Sea Level Pressure 30.01 in    
Wind  
Wind Speed 9 mph (North)    
Max Wind Speed 16 mph    
Max Gust Speed 25 mph    
Visibility 4 miles    
Events Rain , Thunderstorm    
T = Trace of Precipitation, MM = Missing Value Source: NWS Daily Summary

Daily Weather History Graph

Daily Weather History Graph

Search for Another Location

Airport or City:

Trip Planner

Search our weather history database for the weather conditions in past years. The results will help you decide how hot, cold, wet, or windy it might be!

Date:

Astronomy

Jan. 09, 2013 Rise Set
Actual Time 7:36 AM CST 5:49 PM CST
Civil Twilight 7:10 AM CST 6:16 PM CST
Nautical Twilight 6:40 AM CST 6:46 PM CST
Astronomical Twilight 6:10 AM CST 7:15 PM CST
Moon 5:17 AM CST (1/9) 3:53 PM CST (1/9)
Length of Visible Light 11h 06m
Length of Day
10h 12m
Waning Crescent, 6% of the Moon is Illuminated
Jan 9
Waning Crescent
Jan 11
New
Jan 18
First Quarter
Jan 26
Full
Feb 3
Last Quarter

Hourly Weather History & Observations

Time (CST) Temp. Dew Point Humidity Pressure Visibility Wind Dir Wind Speed Gust Speed Precip Events Conditions
12:15 AM 48.2 °F 46.4 °F 93% 30.03 in 3.0 mi NNE 11.5 mph - 0.03 in Rain Rain
12:35 AM 48.2 °F 46.4 °F 93% 30.03 in 3.0 mi NNE 8.1 mph - 0.10 in Rain Light Rain
12:55 AM 48.2 °F 46.4 °F 93% 30.05 in 6.0 mi NNE 5.8 mph - 0.13 in Rain Light Rain
1:35 AM 48.2 °F 46.4 °F 93% 30.05 in 5.0 mi North 4.6 mph - 0.01 in Rain Light Rain
1:55 AM 48.2 °F 48.2 °F 100% 30.03 in 2.5 mi North - - 0.05 in Rain Light Rain
2:15 AM 48.2 °F 48.2 °F 100% 30.04 in 4.0 mi North - - N/A Rain Light Rain
2:35 AM 48.2 °F 48.2 °F 100% 30.05 in 3.0 mi North - - 0.04 in Rain Light Rain
2:55 AM 50.0 °F 50.0 °F 100% 30.05 in 5.0 mi North - - 0.07 in Rain Light Rain
3:15 AM 48.2 °F 48.2 °F 100% 30.06 in 4.0 mi NE 6.9 mph - 0.01 in Rain Light Rain
3:35 AM 48.2 °F 48.2 °F 100% 30.07 in 4.0 mi North 4.6 mph - 0.03 in Rain Light Rain
3:55 AM 50.0 °F 50.0 °F 100% 30.06 in 6.0 mi North 8.1 mph - 0.04 in Rain Light Rain
4:15 AM 50.0 °F 50.0 °F 100% 30.04 in 4.0 mi NE 8.1 mph - 0.01 in Rain Light Rain
4:35 AM 50.0 °F 50.0 °F 100% 30.03 in 8.0 mi NE 12.7 mph 16.1 mph 0.02 in Rain Light Rain
4:55 AM 50.0 °F 50.0 °F 100% 30.03 in 10.0 mi NE 11.5 mph 16.1 mph 0.02 in Rain Light Rain
5:15 AM 51.8 °F 50.0 °F 94% 30.02 in 10.0 mi NE 12.7 mph 19.6 mph N/A   Mostly Cloudy
5:55 AM 53.6 °F 51.8 °F 94% 30.02 in 10.0 mi NE 12.7 mph 19.6 mph N/A Rain Light Rain
6:15 AM 53.6 °F 51.8 °F 94% 30.02 in 7.0 mi NNE 15.0 mph 20.7 mph N/A Rain Light Rain
6:35 AM 53.6 °F 50.0 °F 88% 30.04 in 10.0 mi NNE 13.8 mph 21.9 mph 0.01 in Rain Light Rain
6:55 AM 50.0 °F 50.0 °F 100% 30.04 in 8.0 mi North 11.5 mph 18.4 mph 0.01 in Rain Light Rain
7:15 AM 50.0 °F 48.2 °F 94% 30.06 in 5.0 mi North 15.0 mph 21.9 mph 0.02 in Rain Light Rain
7:35 AM 48.2 °F 48.2 °F 100% 30.06 in 5.0 mi North 15.0 mph 20.7 mph 0.04 in Rain Rain
7:55 AM 48.2 °F 48.2 °F 100% 30.07 in 5.0 mi North 11.5 mph 19.6 mph 0.07 in Rain Light Rain
8:15 AM 48.2 °F 48.2 °F 100% 30.08 in 5.0 mi North 11.5 mph 17.3 mph N/A Rain Light Rain
8:35 AM 48.2 °F 48.2 °F 100% 30.09 in 4.0 mi North 9.2 mph - 0.02 in Rain Light Rain
8:55 AM 50.0 °F 48.2 °F 94% 30.09 in 6.0 mi North 9.2 mph - 0.04 in Rain Light Rain
9:15 AM 50.0 °F 48.2 °F 94% 30.10 in 7.0 mi North 5.8 mph - N/A Rain Light Rain
9:35 AM 50.0 °F 48.2 °F 94% 30.11 in 8.0 mi NNE 11.5 mph 16.1 mph N/A Rain Light Rain
9:55 AM 50.0 °F 48.2 °F 94% 30.10 in 1.8 mi North 10.4 mph 17.3 mph N/A   Overcast
10:15 AM 50.0 °F 48.2 °F 94% 30.09 in 1.5 mi North 12.7 mph - N/A Rain Light Rain
10:35 AM 50.0 °F 50.0 °F 100% 30.07 in 1.0 mi North 15.0 mph 20.7 mph N/A Rain Light Rain
10:55 AM 50.0 °F 48.2 °F 94% 30.06 in 1.8 mi North 15.0 mph 20.7 mph N/A Rain Light Rain
11:15 AM 50.0 °F 48.2 °F 94% 30.05 in 0.8 mi North 13.8 mph - N/A Rain Rain
11:35 AM 50.0 °F 48.2 °F 94% 30.02 in 1.0 mi North 16.1 mph 24.2 mph 0.01 in Rain Light Rain
11:55 AM 50.0 °F 48.2 °F 94% 30.01 in 2.5 mi North 11.5 mph 25.3 mph 0.02 in Rain Light Rain
12:15 PM 50.0 °F 48.2 °F 94% 30.01 in 1.8 mi North 11.5 mph 18.4 mph N/A Rain Light Rain
12:35 PM 50.0 °F 48.2 °F 94% 30.00 in 2.5 mi North 9.2 mph - N/A Rain Light Rain
12:55 PM 50.0 °F 50.0 °F 100% 29.98 in 0.8 mi North 9.2 mph - 0.12 in Rain Rain
1:15 PM 50.0 °F 50.0 °F 100% 29.97 in 0.8 mi North 8.1 mph - 0.05 in Rain Light Rain
1:35 PM 50.0 °F 50.0 °F 100% 29.98 in 0.8 mi Calm Calm - 0.09 in Rain Light Rain
1:55 PM 50.0 °F 50.0 °F 100% 29.99 in 0.8 mi SW 3.5 mph - 0.14 in Rain Rain
2:15 PM 50.0 °F 50.0 °F 100% 29.99 in 0.8 mi WSW 4.6 mph - 0.02 in Rain Rain
2:35 PM 50.0 °F 50.0 °F 100% 29.97 in 0.8 mi NNW 6.9 mph - 0.06 in Rain Rain
2:55 PM 50.0 °F 50.0 °F 100% 29.90 in 1.2 mi North 16.1 mph 20.7 mph 0.08 in   Scattered Clouds
3:15 PM 50.0 °F 50.0 °F 100% 29.91 in 10.0 mi North 12.7 mph 21.9 mph N/A Rain Light Rain
3:35 PM 51.8 °F 51.8 °F 100% 29.92 in 10.0 mi North 11.5 mph - N/A Rain Light Rain
3:55 PM 51.8 °F 51.8 °F 100% 29.93 in 3.0 mi North 6.9 mph - N/A   Mostly Cloudy
4:15 PM 51.8 °F 51.8 °F 100% 29.93 in 0.8 mi North 6.9 mph - N/A Rain Light Rain
4:35 PM 51.8 °F 51.8 °F 100% 29.92 in 1.0 mi North 6.9 mph - N/A   Mostly Cloudy
4:55 PM 53.6 °F 53.6 °F 100% 29.94 in 2.0 mi North 4.6 mph - N/A   Mostly Cloudy
5:35 PM 53.6 °F 53.6 °F 100% 29.93 in 1.2 mi NNE 4.6 mph - 0.01 in Rain Light Rain
5:55 PM 51.8 °F 51.8 °F 100% 29.95 in 0.8 mi SSW 8.1 mph - 0.02 in Rain Light Rain
6:15 PM 51.8 °F 51.8 °F 100% 29.95 in 1.5 mi SSE 3.5 mph - N/A Rain Light Rain
6:35 PM 51.8 °F 51.8 °F 100% 29.96 in 3.0 mi Calm Calm - N/A   Overcast
6:55 PM 51.8 °F 51.8 °F 100% 29.97 in 2.0 mi South 5.8 mph - N/A   Overcast
7:55 PM 51.8 °F 51.8 °F 100% 29.99 in 9.0 mi Calm Calm - N/A   Overcast
8:15 PM 51.8 °F 51.8 °F 100% 29.99 in 3.0 mi Calm Calm - N/A   Overcast
9:35 PM 50.0 °F 50.0 °F 100% 29.98 in 5.0 mi Calm Calm - N/A   Overcast
10:15 PM 50.0 °F 50.0 °F 100% 29.99 in 7.0 mi SW 4.6 mph - N/A   Overcast
10:35 PM 50.0 °F 50.0 °F 100% 29.99 in 5.0 mi SSW 3.5 mph - N/A   Overcast
10:55 PM 50.0 °F 50.0 °F 100% 30.00 in 1.8 mi SSW 5.8 mph - N/A   Overcast
11:15 PM 50.0 °F 50.0 °F 100% 29.99 in 1.0 mi SSE 3.5 mph - N/A Rain Light Rain
11:35 PM 50.0 °F 50.0 °F 100% 29.99 in 1.2 mi ESE 3.5 mph - N/A   Overcast
11:55 PM 50.0 °F 50.0 °F 100% 30.01 in 0.8 mi SW 5.8 mph - N/A Thunderstorm Overcast